Change the Weather History Date:

Tuesday, June 10, 2014

  Actual Average Record
Temperature  
Mean Temperature 56 °F 58 °F  
Max Temperature 74 °F 71 °F 76 °F (2013)
Min Temperature 37 °F 44 °F 30 °F (1999)
Degree Days  
Heating Degree Days 9 8  
Month to date heating degree days 59 84  
Since 1 June heating degree days 59 84  
Since 1 July heating degree days 7264 7298  
Cooling Degree Days 0 0  
Month to date cooling degree days 0 0  
Year to date cooling degree days 0 3  
Since 1 June cooling degree days 0 0  
Growing Degree Days 5 (Base 50)    
Moisture  
Dew Point 41 °F    
Average Humidity 60    
Maximum Humidity 92    
Minimum Humidity 27    
Precipitation  
Precipitation 0.14 in 0.08 in 0.64 in (2006)
Month to date precipitation 0.29 0.74  
Year to date precipitation 11.35 10.48  
Sea Level Pressure  
Sea Level Pressure 29.90 in    
Wind  
Wind Speed 6 mph (North)    
Max Wind Speed 22 mph    
Max Gust Speed 27 mph    
Visibility 9 miles    
Events Rain    
T = Trace of Precipitation, MM = Missing Value Source: NWS Daily Summary

Daily Weather History Graph

Daily Weather History Graph

Search for Another Location

Airport or City:

Trip Planner

Search our weather history database for the weather conditions in past years. The results will help you decide how hot, cold, wet, or windy it might be!

Date:

Astronomy

Jun. 10, 2014 Rise Set
Actual Time 4:50 AM PDT 8:48 PM PDT
Civil Twilight 4:09 AM PDT 9:29 PM PDT
Nautical Twilight 3:13 AM PDT 10:25 PM PDT
Astronomical Twilight 1:42 AM PDT 11:57 PM PDT
Moon 6:08 PM PDT (6/10) 3:12 AM PDT (6/10)
Length of Visible Light 17h 19m
Length of Day
15h 57m
Waxing Gibbous, 93% of the Moon is Illuminated
Jun 10
Waxing Gibbous
Jun 12
Full
Jun 19
Last Quarter
Jun 27
New
Jul 5
First Quarter

Hourly Weather History & Observations

Time (PDT) Temp. Windchill Dew Point Humidity Pressure Visibility Wind Dir Wind Speed Gust Speed Precip Events Conditions
12:53 AM 48.9 °F - 37.9 °F 66% 29.83 in 10.0 mi NW 4.6 mph - N/A   Clear
1:53 AM 43.0 °F - 37.0 °F 80% 29.85 in 10.0 mi Calm Calm - N/A   Clear
2:53 AM 42.1 °F 40.2 °F 36.0 °F 79% 29.85 in 10.0 mi NNE 3.5 mph - N/A   Clear
3:53 AM 42.1 °F 40.2 °F 36.0 °F 79% 29.86 in 10.0 mi NW 3.5 mph - N/A   Clear
4:53 AM 39.9 °F - 35.1 °F 83% 29.87 in 10.0 mi North - - N/A   Clear
5:53 AM 43.0 °F - 39.0 °F 86% 29.87 in 10.0 mi North - - N/A   Clear
6:53 AM 51.1 °F - 37.0 °F 59% 29.88 in 10.0 mi SSE 8.1 mph - N/A   Clear
8:53 AM 57.9 °F - 37.0 °F 46% 29.90 in 10.0 mi SE 6.9 mph - N/A   Clear
9:53 AM 61.0 °F - 37.0 °F 41% 29.89 in 10.0 mi SSE 9.2 mph - N/A   Clear
10:53 AM 63.0 °F - 36.0 °F 37% 29.90 in 10.0 mi Variable 3.5 mph - N/A   Clear
12:53 PM 69.1 °F - 37.9 °F 32% 29.88 in 10.0 mi North - - N/A   Partly Cloudy
2:53 PM 66.0 °F - 39.9 °F 38% 29.88 in 10.0 mi WNW 11.5 mph 23.0 mph N/A   Overcast
3:53 PM 71.1 °F - 43.0 °F 36% 29.90 in 10.0 mi North 9.2 mph - N/A   Mostly Cloudy
4:42 PM 54.0 °F - 45.0 °F 72% 29.93 in 1.8 mi NW 21.9 mph 26.5 mph 0.12 in Rain Heavy Rain
4:50 PM 55.4 °F - 46.4 °F 72% 29.93 in 3.0 mi North 15.0 mph - 0.14 in Rain Light Rain
4:53 PM 55.0 °F - 46.9 °F 74% 29.94 in 7.0 mi North 15.0 mph - 0.14 in Rain Light Rain
5:53 PM 57.9 °F - 46.0 °F 65% 29.94 in 10.0 mi North - - 0.00 in   Mostly Cloudy
6:53 PM 64.0 °F - 45.0 °F 50% 29.92 in 10.0 mi ENE 5.8 mph - N/A   Mostly Cloudy
8:53 PM 53.1 °F - 48.0 °F 83% 29.94 in 10.0 mi North - - N/A   Clear
9:53 PM 48.0 °F - 45.0 °F 89% 29.96 in 10.0 mi NW 3.5 mph - N/A   Clear
10:53 PM 44.1 °F 42.5 °F 42.1 °F 93% 29.97 in 10.0 mi North 3.5 mph - N/A   Clear
11:53 PM 45.0 °F - 43.0 °F 93% 29.96 in 10.0 mi Calm Calm - N/A   Clear